Starlink 30703

operational
NORAD ID: 57954 Int'l Des: 2023-148 Owner: SPXS Country: US Constellation: starlink
LEOCIRCULAR

About Starlink 30703

Description loading...

Live Position

Loading 3D Globe...

Upcoming Passes

Altitude History

Altitude vs Time

uPlot chart will show altitude changes over time

Two-Line Element Set

1 57954U 23148V 25304.56754728 -.00000168 00000-0 64502-5 0 9994
2 57954 53.1604 253.9355 0001054 86.0549 274.0572 15.30185803118792
Epoch: Oct 31, 2025 • Age: 7 hours

Current Status

Altitude 484.2 km
Velocity 7.62 km/s
Sub-Earth Point -28.30°S, 103.32°E
Launch Date Sep 25, 2023
Age 2 years
Type internet

Technical Details

Classification Payload
Mass 730.00 kg
Dry Mass 700.00 kg
Total Mass 730.00 kg
Length 0.30 m
Diameter 4.10 m
Span 29.00 m
Shape Box + pan
Manufacturer SPXS
Bus Type Starlink V2M
Phase Status In Orbit
Owner/State SPXS/US

Large Constellations

Loading constellations...